�������l�o���
Date,Time,MP-1(��Sv/h),MP-2(��Sv/h),MP-3(��Sv/h),MP-4(��Sv/h),MP-5(��Sv/h),MP-6(��Sv/h),MP-7(��Sv/h),MP-8(��Sv/h),����,����(m/s),���J
2017/02/28,00:00,1.053,1.780,1.176,2.061,1.438,0.554,1.021,0.947,�k�k��,5.2,��
2017/02/28,00:10,1.054,1.780,1.176,2.061,1.438,0.553,1.020,0.948,�k�k��,5.5,��
2017/02/28,00:20,1.051,1.780,1.174,2.063,1.435,0.555,1.021,0.948,�k�k��,5.5,��
2017/02/28,00:30,1.055,1.781,1.177,2.059,1.438,0.554,1.023,0.946,�k�k��,5.8,��
2017/02/28,00:40,1.055,1.777,1.177,2.060,1.441,0.556,1.021,0.948,�k�k��,5.6,��
2017/02/28,00:50,1.053,1.781,1.174,2.060,1.437,0.555,1.022,0.946,�k�k��,6.0,��
2017/02/28,01:00,1.053,1.779,1.175,2.061,1.439,0.556,1.019,0.948,�k�k��,6.2,��
2017/02/28,01:10,1.054,1.779,1.177,2.060,1.438,0.555,1.022,0.946,�k�k��,6.1,��
2017/02/28,01:20,1.050,1.779,1.176,2.063,1.440,0.554,1.022,0.947,�k�k��,5.5,��
2017/02/28,01:30,1.052,1.780,1.178,2.060,1.440,0.555,1.021,0.948,�k�k��,5.8,��
2017/02/28,01:40,1.053,1.781,1.176,2.061,1.439,0.556,1.020,0.951,�k��,5.7,��
2017/02/28,01:50,1.052,1.776,1.177,2.062,1.435,0.554,1.020,0.949,�k�k��,5.0,��
2017/02/28,02:00,1.053,1.780,1.174,2.060,1.435,0.558,1.021,0.949,�k�k��,6.1,��
2017/02/28,02:10,1.052,1.780,1.176,2.060,1.438,0.554,1.022,0.947,�k�k��,6.0,��
2017/02/28,02:20,1.054,1.781,1.176,2.063,1.438,0.554,1.022,0.948,�k�k��,6.0,��
2017/02/28,02:30,1.053,1.777,1.176,2.061,1.436,0.556,1.022,0.947,�k�k��,6.0,��
2017/02/28,02:40,1.050,1.781,1.174,2.061,1.439,0.555,1.020,0.947,�k�k��,6.2,��
2017/02/28,02:50,1.051,1.778,1.176,2.060,1.439,0.554,1.022,0.948,�k�k��,6.5,��
2017/02/28,03:00,1.053,1.778,1.174,2.060,1.439,0.555,1.021,0.947,�k�k��,6.8,��
2017/02/28,03:10,1.052,1.776,1.176,2.061,1.439,0.557,1.021,0.947,�k�k��,6.6,��
2017/02/28,03:20,1.049,1.780,1.174,2.061,1.437,0.554,1.021,0.946,�k�k��,6.7,��
2017/02/28,03:30,1.052,1.780,1.176,2.059,1.439,0.554,1.022,0.946,�k�k��,6.5,��
2017/02/28,03:40,1.050,1.780,1.177,2.057,1.437,0.551,1.020,0.947,�k�k��,6.9,��
2017/02/28,03:50,1.051,1.782,1.173,2.060,1.435,0.554,1.019,0.949,�k�k��,7.1,��
2017/02/28,04:00,1.050,1.776,1.176,2.061,1.436,0.554,1.021,0.947,�k�k��,7.2,��
2017/02/28,04:10,1.049,1.777,1.173,2.059,1.434,0.554,1.021,0.949,�k�k��,7.6,��
2017/02/28,04:20,1.050,1.781,1.175,2.059,1.436,0.556,1.020,0.945,�k�k��,6.9,��
2017/02/28,04:30,1.053,1.775,1.176,2.059,1.439,0.553,1.019,0.946,�k�k��,7.2,��
2017/02/28,04:40,1.050,1.777,1.172,2.057,1.435,0.555,1.019,0.945,�k�k��,7.0,��
2017/02/28,04:50,1.052,1.776,1.175,2.055,1.438,0.554,1.019,0.948,�k�k��,7.2,��
2017/02/28,05:00,1.051,1.778,1.173,2.059,1.438,0.554,1.020,0.946,�k�k��,7.3,��
2017/02/28,05:10,1.052,1.778,1.172,2.060,1.437,0.554,1.021,0.945,�k��,7.5,��
2017/02/28,05:20,1.052,1.777,1.176,2.058,1.434,0.553,1.019,0.948,�k��,7.5,��
2017/02/28,05:30,1.050,1.778,1.174,2.057,1.437,0.551,1.020,0.947,�k�k��,7.5,��
2017/02/28,05:40,1.049,1.779,1.176,2.057,1.436,0.554,1.019,0.947,�k�k��,7.5,��
2017/02/28,05:50,1.052,1.776,1.175,2.060,1.437,0.555,1.021,0.946,�k�k��,7.5,��
2017/02/28,06:00,1.047,1.778,1.174,2.061,1.439,0.553,1.021,0.948,�k��,7.1,��
2017/02/28,06:10,1.051,1.777,1.174,2.057,1.437,0.555,1.021,0.947,�k�k��,7.3,��
2017/02/28,06:20,1.050,1.774,1.175,2.058,1.438,0.552,1.021,0.944,�k��,7.5,��
2017/02/28,06:30,1.047,1.777,1.175,2.062,1.436,0.552,1.022,0.948,�k��,7.7,��
2017/02/28,06:40,1.050,1.775,1.174,2.058,1.436,0.554,1.022,0.947,�k�k��,6.7,��
2017/02/28,06:50,1.049,1.780,1.173,2.060,1.433,0.553,1.020,0.949,�k�k��,7.2,��
2017/02/28,07:00,1.050,1.780,1.170,2.059,1.434,0.550,1.023,0.948,�k�k��,6.9,��
2017/02/28,07:10,1.050,1.778,1.174,2.060,1.439,0.552,1.022,0.947,�k�k��,6.4,��
2017/02/28,07:20,1.050,1.777,1.175,2.057,1.436,0.554,1.020,0.946,�k�k��,6.5,��
2017/02/28,07:30,1.051,1.778,1.175,2.061,1.434,0.554,1.022,0.946,�k�k��,7.2,��
2017/02/28,07:40,1.054,1.777,1.176,2.059,1.436,0.552,1.019,0.948,�k�k��,6.3,��
2017/02/28,07:50,1.053,1.777,1.175,2.059,1.440,0.554,1.021,0.951,�k�k��,6.0,��
2017/02/28,08:00,1.049,1.780,1.176,2.060,1.435,0.555,1.020,0.948,�k�k��,6.7,��
2017/02/28,08:10,1.050,1.778,1.173,2.060,1.436,0.554,1.021,0.947,�k�k��,7.1,��
2017/02/28,08:20,1.051,1.777,1.172,2.063,1.436,0.553,1.019,0.948,�k�k��,5.8,��
2017/02/28,08:30,1.051,1.773,1.175,2.064,1.438,0.553,1.019,0.949,�k�k��,4.9,��
2017/02/28,08:40,1.052,1.774,1.177,2.062,1.436,0.554,1.019,0.949,�k�k��,5.2,��
2017/02/28,08:50,1.053,1.752,1.175,2.057,1.439,0.553,1.020,0.947,�k�k��,5.6,��
2017/02/28,09:00,1.054,1.685,1.173,2.060,1.437,0.553,1.019,0.951,�k�k��,5.3,��
2017/02/28,09:10,1.054,1.679,1.176,2.065,1.436,0.558,1.018,0.948,�k�k��,4.7,��
2017/02/28,09:20,1.052,1.678,1.177,2.065,1.438,0.554,1.022,0.949,�k�k��,5.4,��
2017/02/28,09:30,1.054,1.674,1.178,2.064,1.441,0.555,1.020,0.949,�k�k��,5.3,��
2017/02/28,09:40,1.054,1.678,1.178,2.065,1.440,0.554,1.021,0.947,�k�k��,5.1,��
2017/02/28,09:50,1.054,1.675,1.177,2.063,1.442,0.556,1.023,0.949,�k,5.2,��
2017/02/28,10:00,1.055,1.679,1.176,2.065,1.443,0.553,1.021,0.949,�k,5.3,��
2017/02/28,10:10,1.053,1.677,1.178,2.068,1.441,0.554,1.019,0.949,�k,3.5,��
2017/02/28,10:20,1.055,1.669,1.178,2.063,1.442,0.555,1.020,0.949,�k�k��,4.7,��
2017/02/28,10:30,1.054,1.670,1.176,2.062,1.438,0.556,1.019,0.950,�k,5.2,��
2017/02/28,10:40,1.055,1.671,1.178,2.064,1.441,0.553,1.019,0.947,�k,4.7,��
2017/02/28,10:50,1.056,1.684,1.177,2.064,1.443,0.555,1.020,0.948,�k�k��,5.2,��
2017/02/28,11:00,1.056,1.687,1.177,2.066,1.439,0.555,1.018,0.949,�k�k��,5.3,��
2017/02/28,11:10,1.056,1.741,1.180,2.064,1.441,0.556,1.017,0.947,�k�k��,6.3,��
2017/02/28,11:20,1.057,1.742,1.181,2.067,1.442,0.555,1.019,0.949,�k�k��,5.9,��
2017/02/28,11:30,1.054,1.757,1.178,2.064,1.441,0.555,1.019,0.951,�k�k��,6.3,��
2017/02/28,11:40,1.056,1.744,1.179,2.069,1.441,0.556,1.019,0.949,�k,6.5,��
2017/02/28,11:50,1.058,1.724,1.180,2.065,1.442,0.554,1.018,0.949,�k�k��,5.9,��
2017/02/28,12:00,1.056,1.729,1.178,2.065,1.443,0.555,1.019,0.949,�k�k��,5.8,��
2017/02/28,12:10,1.055,1.700,1.177,2.066,1.443,0.554,1.019,0.951,�k�k��,6.2,��
2017/02/28,12:20,1.057,1.694,1.180,2.066,1.442,0.555,1.021,0.950,�k�k��,5.8,��
2017/02/28,12:30,1.056,1.700,1.178,2.066,1.443,0.555,1.019,0.948,�k�k��,5.5,��
2017/02/28,12:40,1.057,1.693,1.180,2.063,1.444,0.556,1.018,0.950,�k�k��,5.4,��
2017/02/28,12:50,1.059,1.720,1.178,2.062,1.446,0.556,1.019,0.949,�k�k��,5.3,��
2017/02/28,13:00,1.056,1.711,1.179,2.067,1.442,0.554,1.021,0.950,�k�k��,5.5,��
2017/02/28,13:10,1.057,1.681,1.180,2.066,1.443,0.555,1.021,0.949,�k�k��,5.3,��
2017/02/28,13:20,1.058,1.714,1.179,2.066,1.443,0.556,1.019,0.952,�k��,4.9,��
2017/02/28,13:30,1.057,1.713,1.181,2.063,1.444,0.554,1.020,0.950,�k��,4.2,��
2017/02/28,13:40,1.059,1.699,1.178,2.066,1.443,0.553,1.021,0.949,�k��,5.0,��
2017/02/28,13:50,1.058,1.688,1.180,2.064,1.445,0.554,1.020,0.949,�k��,4.6,��
2017/02/28,14:00,1.056,1.725,1.180,2.066,1.443,0.555,1.022,0.950,���k��,5.3,��
2017/02/28,14:10,1.058,1.705,1.176,2.064,1.444,0.555,1.019,0.949,�k��,4.4,��
2017/02/28,14:20,1.058,1.669,1.180,2.065,1.443,0.553,1.022,0.950,�k��,4.8,��
2017/02/28,14:30,1.057,1.669,1.180,2.063,1.442,0.555,1.019,0.951,���k��,4.8,��
2017/02/28,14:40,1.057,1.672,1.179,2.065,1.443,0.554,1.019,0.950,���k��,5.4,��
2017/02/28,14:50,1.056,1.676,1.179,2.069,1.443,0.554,1.022,0.951,���k��,5.0,��
2017/02/28,15:00,1.057,1.680,1.179,2.066,1.443,0.556,1.022,0.950,�k��,5.0,��
2017/02/28,15:10,1.058,1.676,1.182,2.064,1.444,0.555,1.020,0.949,�k��,4.7,��
2017/02/28,15:20,1.057,1.677,1.180,2.064,1.443,0.554,1.021,0.949,�k��,4.9,��
2017/02/28,15:30,1.057,1.674,1.180,2.066,1.445,0.555,1.021,0.949,�k��,4.6,��
2017/02/28,15:40,1.058,1.679,1.181,2.068,1.441,0.555,1.022,0.949,�k��,4.5,��
2017/02/28,15:50,1.058,1.679,1.180,2.064,1.443,0.555,1.022,0.950,�k��,4.0,��
2017/02/28,16:00,1.055,1.683,1.179,2.064,1.443,0.555,1.024,0.949,�k��,4.2,��
2017/02/28,16:10,1.058,1.685,1.181,2.066,1.441,0.556,1.024,0.950,�k�k��,4.6,��
2017/02/28,16:20,1.057,1.682,1.180,2.067,1.443,0.555,1.023,0.949,�k��,3.8,��
2017/02/28,16:30,1.058,1.681,1.181,2.063,1.444,0.557,1.023,0.949,�k�k��,3.8,��
2017/02/28,16:40,1.057,1.679,1.178,2.067,1.443,0.555,1.021,0.948,�k��,3.5,��
2017/02/28,16:50,1.057,1.685,1.178,2.064,1.441,0.556,1.023,0.949,�k��,4.0,��
2017/02/28,17:00,1.058,1.695,1.178,2.066,1.445,0.554,1.022,0.950,�k��,3.4,��
2017/02/28,17:10,1.059,1.691,1.178,2.063,1.443,0.555,1.023,0.949,�k��,3.5,��
2017/02/28,17:20,1.056,1.707,1.178,2.066,1.441,0.556,1.024,0.949,�k�k��,3.8,��
2017/02/28,17:30,1.054,1.745,1.178,2.062,1.442,0.554,1.022,0.949,���k��,3.4,��
2017/02/28,17:40,1.055,1.713,1.180,2.065,1.441,0.556,1.023,0.950,�k��,3.4,��
2017/02/28,17:50,1.054,1.706,1.178,2.064,1.439,0.556,1.021,0.950,�k�k��,2.6,��
2017/02/28,18:00,1.059,1.767,1.178,2.063,1.440,0.556,1.023,0.950,�k��,2.6,��
2017/02/28,18:10,1.055,1.782,1.177,2.067,1.441,0.556,1.022,0.948,�k��,2.5,��
2017/02/28,18:20,1.055,1.778,1.178,2.062,1.439,0.555,1.022,0.950,�k��,2.5,��
2017/02/28,18:30,1.056,1.780,1.179,2.065,1.442,0.556,1.023,0.947,�k��,3.3,��
2017/02/28,18:40,1.057,1.778,1.180,2.064,1.443,0.554,1.021,0.948,�k�k��,3.4,��
2017/02/28,18:50,1.058,1.780,1.178,2.063,1.442,0.554,1.024,0.950,���k��,3.0,��
2017/02/28,19:00,1.056,1.779,1.178,2.064,1.444,0.555,1.023,0.948,�k��,2.5,��
2017/02/28,19:10,1.055,1.782,1.179,2.065,1.438,0.556,1.022,0.947,�k�k��,2.2,��
2017/02/28,19:20,1.055,1.780,1.177,2.062,1.440,0.554,1.021,0.947,�k�k��,2.3,��
2017/02/28,19:30,1.056,1.779,1.179,2.064,1.441,0.556,1.023,0.949,�k�k��,1.4,��
2017/02/28,19:40,1.054,1.778,1.181,2.063,1.443,0.554,1.021,0.950,�k�k��,2.3,��
2017/02/28,19:50,1.055,1.779,1.179,2.065,1.440,0.555,1.024,0.948,�k,2.0,��
2017/02/28,20:00,1.057,1.778,1.178,2.065,1.442,0.555,1.021,0.947,�k�k��,0.9,��
2017/02/28,20:10,1.055,1.779,1.177,2.063,1.441,0.555,1.021,0.948,�k��,0.9,��
2017/02/28,20:20,1.055,1.778,1.176,2.062,1.443,0.557,1.023,0.949,�k�k��,1.1,��
2017/02/28,20:30,1.054,1.778,1.176,2.066,1.443,0.554,1.022,0.948,�k�k��,1.5,��
2017/02/28,20:40,1.055,1.779,1.177,2.062,1.442,0.555,1.021,0.948,�k��,1.7,��
2017/02/28,20:50,1.054,1.778,1.179,2.064,1.441,0.555,1.021,0.951,�k�k��,1.9,��
2017/02/28,21:00,1.057,1.780,1.178,2.065,1.441,0.556,1.024,0.948,�k�k��,1.5,��
2017/02/28,21:10,1.056,1.776,1.177,2.064,1.441,0.556,1.022,0.946,-,CALM,��
2017/02/28,21:20,1.053,1.779,1.175,2.064,1.445,0.554,1.024,0.948,�k,1.5,��
2017/02/28,21:30,1.055,1.781,1.177,2.064,1.439,0.556,1.021,0.950,�k,1.9,��
2017/02/28,21:40,1.054,1.778,1.181,2.064,1.442,0.556,1.021,0.947,�k�k��,1.9,��
2017/02/28,21:50,1.055,1.780,1.177,2.063,1.439,0.555,1.021,0.949,�k��,0.9,��
2017/02/28,22:00,1.055,1.779,1.176,2.065,1.445,0.555,1.021,0.950,���k��,1.7,��
2017/02/28,22:10,1.053,1.780,1.176,2.064,1.440,0.554,1.021,0.947,�k��,1.7,��
2017/02/28,22:20,1.056,1.778,1.177,2.064,1.443,0.555,1.023,0.948,���k��,1.5,��
2017/02/28,22:30,1.055,1.778,1.176,2.064,1.442,0.556,1.022,0.949,��,1.2,��
2017/02/28,22:40,1.054,1.778,1.178,2.064,1.441,0.556,1.021,0.946,���k��,1.7,��
2017/02/28,22:50,1.055,1.778,1.178,2.062,1.442,0.556,1.021,0.948,���k��,1.7,��
2017/02/28,23:00,1.056,1.777,1.176,2.066,1.441,0.556,1.023,0.948,���k��,0.9,��
2017/02/28,23:10,1.055,1.779,1.180,2.063,1.440,0.555,1.020,0.947,�k�k��,0.8,��
2017/02/28,23:20,1.054,1.779,1.178,2.062,1.441,0.555,1.023,0.948,���k��,1.4,��
2017/02/28,23:30,1.054,1.778,1.179,2.063,1.440,0.557,1.022,0.948,�k��,1.5,��
2017/02/28,23:40,1.057,1.777,1.177,2.063,1.442,0.556,1.020,0.948,���k��,2.0,��
2017/02/28,23:50,1.053,1.780,1.177,2.062,1.439,0.555,1.021,0.947,�k��,1.9,��
